QPF
0.01 0.02 0.02 0.02 0.02 0.02 0.02 0.03 0.04 0.05 0.07 0.08 0.06 0.04 0.02 0.02 0.02 0.02 0.03 0.03 0.02 0.01 0.01 0.01 0.01 0.02 0.03 0.04 0.05 0.05 0.05 0.05 0.04 0.04 0.03 0.03 0.03 0.02 0.02 0.02 0.02 0.01 0.01
0.03 0.04 0.03 0.02 0.02 0.01 0.02 0.03 0.04 0.04 0.04 0.04 0.04 0.03 0.02 0.02 0.02 0.02 0.02 0.03 0.02 0.01 0.01 0.01 0.01 0.01 0.01 0.02 0.04 0.06 0.07 0.06 0.05 0.04 0.04 0.03 0.03 0.03 0.03 0.03 0.02 0.02 0.02
0.04 0.06 0.04 0.02 0.02 0.02 0.03 0.04 0.03 0.03 0.03 0.03 0.02 0.01 0.02 0.03 0.03 0.02 0.02 0.02 0.02 0.02 0.01 0.01 0.01 0.01 0.01 0.01 0.02 0.05 0.07 0.08 0.08 0.05 0.04 0.04 0.03 0.03 0.03 0.03 0.03 0.02 0.01
0.03 0.04 0.03 0.02 0.02 0.02 0.03 0.04 0.04 0.03 0.03 0.03 0.02 0.01 0.01 0.02 0.03 0.03 0.02 0.02 0.02 0.02 0.02 0.02 0.01 0.01 0.01 0.01 0.02 0.05 0.08 0.09 0.10 0.10 0.07 0.04 0.03 0.02 0.02 0.02 0.02 0.02 0.01
0.01 0.02 0.03 0.03 0.03 0.03 0.03 0.04 0.05 0.03 0.03 0.03 0.02 0.01 0.01 0.02 0.03 0.03 0.02 0.02 0.02 0.02 0.02 0.02 0.01 0.01 0.01 0.01 0.03 0.05 0.08 0.11 0.11 0.11 0.10 0.07 0.04 0.03 0.02 0.02 0.03 0.02 0.01
0.01 0.01 0.02 0.04 0.04 0.03 0.03 0.03 0.04 0.04 0.03 0.03 0.02 0.01 0.01 0.01 0.02 0.03 0.02 0.02 0.02 0.01 0.01 0.01 0.01 0.02 0.02 0.02 0.03 0.05 0.06 0.07 0.09 0.10 0.10 0.10 0.08 0.05 0.03 0.02 0.02 0.02 0.02
0.01 0.01 0.02 0.03 0.04 0.04 0.04 0.03 0.03 0.04 0.03 0.03 0.02 0.01 0.01 0.01 0.02 0.03 0.03 0.02 0.02 0.02 0.02 0.02 0.02 0.02 0.02 0.02 0.03 0.04 0.05 0.06 0.06 0.07 0.09 0.10 0.10 0.08 0.06 0.04 0.03 0.02 0.02
0.01 0.01 0.01 0.02 0.03 0.04 0.05 0.04 0.04 0.04 0.04 0.03 0.02 0.01 0.01 0.01 0.02 0.03 0.03 0.03 0.03 0.03 0.03 0.05 0.04 0.03 0.03 0.03 0.03 0.04 0.04 0.05 0.06 0.05 0.06 0.07 0.09 0.08 0.08 0.07 0.07 0.05 0.03
0.01 0.01 0.01 0.01 0.02 0.03 0.04 0.05 0.05 0.04 0.04 0.03 0.03 0.02 0.02 0.02 0.02 0.03 0.04 0.03 0.03 0.04 0.05 0.06 0.06 0.05 0.05 0.04 0.03 0.03 0.03 0.03 0.05 0.05 0.05 0.05 0.07 0.08 0.07 0.06 0.06 0.06 0.05
0.01 0.01 0.01 0.01 0.02 0.02 0.04 0.05 0.04 0.04 0.04 0.03 0.03 0.03 0.02 0.03 0.02 0.03 0.03 0.04 0.03 0.03 0.04 0.05 0.05 0.05 0.05 0.04 0.03 0.03 0.03 0.03 0.04 0.05 0.05 0.05 0.05 0.06 0.07 0.06 0.05 0.05 0.05
0.00 0.01 0.01 0.01 0.01 0.01 0.02 0.03 0.03 0.03 0.04 0.04 0.03 0.03 0.03 0.04 0.03 0.03 0.03 0.04 0.04 0.03 0.03 0.03 0.03 0.04 0.04 0.04 0.05 0.04 0.03 0.03 0.04 0.05 0.05 0.06 0.06 0.05 0.05 0.05 0.05 0.05 0.05
0.00 0.01 0.01 0.01 0.01 0.01 0.01 0.01 0.03 0.03 0.04 0.04 0.04 0.04 0.04 0.04 0.05 0.05 0.04 0.04 0.04 0.04 0.03 0.03 0.03 0.03 0.03 0.03 0.04 0.05 0.04 0.04 0.03 0.04 0.04 0.05 0.06 0.05 0.04 0.04 0.03 0.03 0.03
0.00 0.01 0.01 0.01 0.01 0.01 0.01 0.01 0.02 0.03 0.03 0.04 0.05 0.05 0.05 0.06 0.05 0.05 0.05 0.05 0.05 0.04 0.04 0.04 0.04 0.04 0.04 0.03 0.03 0.04 0.05 0.04 0.03 0.03 0.04 0.05 0.06 0.05 0.04 0.03 0.03 0.03 0.02
0.01 0.01 0.01 0.01 0.02 0.02 0.02 0.02 0.01 0.02 0.02 0.03 0.04 0.05 0.05 0.06 0.07 0.06 0.06 0.06 0.07 0.06 0.05 0.05 0.05 0.05 0.05 0.04 0.03 0.03 0.04 0.04 0.04 0.03 0.04 0.04 0.05 0.05 0.04 0.03 0.03 0.03 0.03
0.02 0.02 0.02 0.01 0.02 0.02 0.03 0.03 0.03 0.02 0.02 0.02 0.03 0.04 0.04 0.04 0.05 0.05 0.05 0.05 0.05 0.05 0.04 0.04 0.04 0.04 0.04 0.04 0.03 0.03 0.03 0.03 0.04 0.03 0.03 0.04 0.03 0.04 0.03 0.03 0.03 0.03 0.04
0.02 0.02 0.02 0.01 0.02 0.02 0.02 0.03 0.03 0.03 0.02 0.02 0.03 0.03 0.03 0.04 0.04 0.03 0.03 0.03 0.04 0.03 0.02 0.02 0.02 0.02 0.02 0.03 0.03 0.03 0.03 0.03 0.03 0.03 0.02 0.03 0.03 0.03 0.03 0.03 0.02 0.03 0.04
0.01 0.01 0.01 0.01 0.01 0.02 0.02 0.02 0.02 0.02 0.03 0.03 0.03 0.03 0.03 0.04 0.03 0.02 0.02 0.02 0.02 0.02 0.02 0.02 0.02 0.02 0.02 0.02 0.02 0.03 0.03 0.02 0.02 0.02 0.02 0.03 0.02 0.02 0.03 0.03 0.02 0.02 0.03
0.01 0.01 0.01 0.01 0.01 0.01 0.01 0.02 0.02 0.02 0.02 0.03 0.04 0.04 0.03 0.03 0.03 0.02 0.01 0.01 0.01 0.01 0.01 0.01 0.01 0.02 0.02 0.02 0.01 0.02 0.02 0.02 0.01 0.01 0.01 0.02 0.02 0.02 0.02 0.03 0.02 0.02 0.02
0.01 0.01 0.01 0.01 0.01 0.00 0.00 0.01 0.01 0.01 0.01 0.02 0.04 0.04 0.03 0.03 0.03 0.02 0.01 0.01 0.01 0.01 0.01 0.01 0.01 0.01 0.01 0.01 0.01 0.01 0.01 0.01 0.01 0.01 0.01 0.01 0.02 0.03 0.03 0.02 0.02 0.02 0.02
0.01 0.01 0.00 0.00 0.00 0.00 0.00 0.01 0.01 0.01 0.01 0.01 0.02 0.03 0.03 0.03 0.03 0.03 0.02 0.01 0.01 0.01 0.01 0.01 0.01 0.01 0.01 0.01 0.01 0.01 0.00 0.01 0.01 0.01 0.01 0.01 0.02 0.03 0.03 0.02 0.02 0.02 0.02
0.01 0.01 0.01 0.00 0.00 0.00 0.00 0.01 0.01 0.01 0.02 0.02 0.03 0.03 0.02 0.03 0.03 0.03 0.03 0.03 0.02 0.01 0.01 0.01 0.01 0.01 0.01 0.01 0.01 0.00 0.00 0.00 0.01 0.01 0.01 0.01 0.02 0.03 0.03 0.02 0.02 0.02 0.03
0.01 0.01 0.01 0.00 0.00 0.00 0.00 0.00 0.01 0.01 0.01 0.02 0.03 0.04 0.04 0.03 0.03 0.03 0.03 0.03 0.03 0.03 0.02 0.02 0.01 0.01 0.01 0.01 0.00 0.00 0.00 0.01 0.01 0.01 0.02 0.01 0.02 0.02 0.03 0.02 0.02 0.02 0.02
0.01 0.01 0.01 0.01 0.01 0.01 0.01 0.01 0.01 0.01 0.02 0.02 0.03 0.04 0.04 0.04 0.03 0.03 0.03 0.03 0.03 0.03 0.03 0.03 0.02 0.01 0.01 0.01 0.00 0.00 0.00 0.01 0.01 0.01 0.02 0.02 0.02 0.02 0.02 0.03 0.03 0.03 0.03
0.01 0.01 0.01 0.01 0.02 0.02 0.01 0.01 0.01 0.01 0.02 0.03 0.03 0.03 0.04 0.03 0.03 0.03 0.03 0.03 0.03 0.03 0.03 0.03 0.02 0.02 0.01 0.01 0.00 0.00 0.00 0.01 0.01 0.02 0.02 0.02 0.02 0.02 0.03 0.04 0.03 0.03 0.03
0.01 0.01 0.01 0.01 0.02 0.02 0.02 0.01 0.01 0.01 0.02 0.02 0.02 0.02 0.02 0.02 0.02 0.02 0.02 0.02 0.02 0.03 0.03 0.03 0.03 0.02 0.01 0.01 0.01 0.01 0.01 0.01 0.01 0.02 0.02 0.02 0.02 0.02 0.03 0.03 0.03 0.03 0.03
0.01 0.01 0.01 0.01 0.01 0.02 0.02 0.02 0.02 0.02 0.02 0.02 0.02 0.02 0.02 0.02 0.02 0.02 0.02 0.02 0.02 0.02 0.02 0.03 0.03 0.03 0.02 0.02 0.02 0.02 0.02 0.02 0.02 0.02 0.02 0.02 0.01 0.01 0.02 0.02 0.02 0.02 0.02
MSLP
1007.27 1007.18 1007.12 1007.12 1007.20 1007.41 1007.77 1008.30 1008.99 1009.81 1010.72 1011.68 1012.61 1013.48 1014.24 1014.88 1015.39 1015.81 1016.16 1016.49 1016.84 1017.23 1017.70 1018.24 1018.86 1019.55 1020.28 1021.04 1021.81 1022.56 1023.29 1023.97 1024.59 1025.13 1025.60 1025.99 1026.30 1026.53 1026.69 1026.79 1026.85 1026.88 1026.88
1006.71 1006.68 1006.66 1006.69 1006.80 1007.03 1007.41 1007.98 1008.73 1009.62 1010.62 1011.65 1012.64 1013.55 1014.33 1014.95 1015.43 1015.79 1016.09 1016.37 1016.67 1017.04 1017.48 1018.01 1018.62 1019.29 1020.00 1020.72 1021.45 1022.17 1022.86 1023.53 1024.16 1024.76 1025.30 1025.78 1026.19 1026.53 1026.80 1026.99 1027.13 1027.21 1027.25
1006.10 1006.13 1006.18 1006.25 1006.40 1006.66 1007.08 1007.68 1008.47 1009.41 1010.46 1011.53 1012.57 1013.50 1014.28 1014.89 1015.35 1015.68 1015.94 1016.19 1016.47 1016.82 1017.25 1017.77 1018.36 1019.00 1019.66 1020.33 1021.01 1021.67 1022.32 1022.97 1023.61 1024.23 1024.83 1025.39 1025.89 1026.33 1026.68 1026.97 1027.17 1027.32 1027.41
1005.51 1005.60 1005.70 1005.83 1006.02 1006.32 1006.76 1007.38 1008.19 1009.15 1010.20 1011.29 1012.34 1013.27 1014.05 1014.66 1015.11 1015.44 1015.70 1015.96 1016.24 1016.60 1017.03 1017.54 1018.11 1018.72 1019.34 1019.96 1020.57 1021.18 1021.79 1022.40 1023.03 1023.66 1024.28 1024.89 1025.45 1025.96 1026.38 1026.73 1027.00 1027.21 1027.36
1005.06 1005.18 1005.32 1005.48 1005.70 1006.02 1006.47 1007.08 1007.88 1008.82 1009.85 1010.92 1011.94 1012.87 1013.64 1014.26 1014.72 1015.08 1015.37 1015.66 1015.98 1016.37 1016.82 1017.35 1017.91 1018.50 1019.08 1019.66 1020.22 1020.78 1021.33 1021.91 1022.51 1023.13 1023.76 1024.37 1024.96 1025.49 1025.95 1026.34 1026.66 1026.91 1027.12
1004.85 1004.98 1005.12 1005.29 1005.51 1005.81 1006.24 1006.82 1007.56 1008.45 1009.43 1010.44 1011.43 1012.32 1013.09 1013.72 1014.22 1014.63 1014.98 1015.33 1015.72 1016.15 1016.65 1017.20 1017.77 1018.35 1018.91 1019.45 1019.98 1020.49 1021.01 1021.55 1022.11 1022.70 1023.30 1023.89 1024.46 1024.99 1025.45 1025.85 1026.20 1026.49 1026.74
1004.98 1005.07 1005.19 1005.32 1005.49 1005.74 1006.11 1006.61 1007.28 1008.07 1008.97 1009.91 1010.84 1011.70 1012.46 1013.11 1013.66 1014.13 1014.56 1015.00 1015.45 1015.95 1016.50 1017.08 1017.66 1018.24 1018.79 1019.32 1019.82 1020.30 1020.79 1021.30 1021.82 1022.37 1022.93 1023.48 1024.01 1024.51 1024.95 1025.35 1025.70 1026.01 1026.31
1005.46 1005.49 1005.53 1005.59 1005.68 1005.84 1006.11 1006.51 1007.06 1007.75 1008.54 1009.39 1010.25 1011.07 1011.83 1012.51 1013.10 1013.64 1014.16 1014.67 1015.20 1015.76 1016.35 1016.95 1017.55 1018.13 1018.68 1019.20 1019.68 1020.16 1020.63 1021.12 1021.61 1022.13 1022.64 1023.15 1023.63 1024.08 1024.49 1024.87 1025.22 1025.56 1025.89
1006.25 1006.20 1006.14 1006.09 1006.07 1006.11 1006.25 1006.52 1006.94 1007.50 1008.18 1008.93 1009.72 1010.50 1011.25 1011.95 1012.59 1013.20 1013.78 1014.36 1014.95 1015.55 1016.16 1016.78 1017.38 1017.95 1018.49 1019.01 1019.50 1019.98 1020.45 1020.94 1021.42 1021.91 1022.40 1022.87 1023.31 1023.72 1024.11 1024.47 1024.83 1025.18 1025.55
1007.24 1007.10 1006.94 1006.76 1006.61 1006.51 1006.51 1006.64 1006.93 1007.36 1007.91 1008.57 1009.28 1010.02 1010.76 1011.47 1012.16 1012.81 1013.44 1014.06 1014.68 1015.30 1015.91 1016.51 1017.09 1017.65 1018.19 1018.71 1019.21 1019.70 1020.20 1020.70 1021.20 1021.69 1022.17 1022.62 1023.04 1023.43 1023.80 1024.16 1024.53 1024.90 1025.30
1008.28 1008.07 1007.80 1007.50 1007.22 1006.99 1006.85 1006.85 1007.00 1007.31 1007.75 1008.31 1008.95 1009.64 1010.36 1011.08 1011.77 1012.45 1013.11 1013.75 1014.37 1014.98 1015.57 1016.14 1016.69 1017.22 1017.74 1018.26 1018.78 1019.30 1019.84 1020.37 1020.91 1021.42 1021.92 1022.37 1022.80 1023.19 1023.57 1023.94 1024.32 1024.72 1025.14
1009.25 1008.97 1008.61 1008.21 1007.81 1007.46 1007.21 1007.08 1007.12 1007.31 1007.65 1008.12 1008.69 1009.33 1010.02 1010.72 1011.42 1012.10 1012.77 1013.40 1014.01 1014.58 1015.13 1015.66 1016.17 1016.67 1017.18 1017.70 1018.24 1018.80 1019.38 1019.97 1020.55 1021.11 1021.63 1022.12 1022.56 1022.97 1023.36 1023.75 1024.16 1024.58 1025.02
1010.04 1009.71 1009.28 1008.80 1008.31 1007.87 1007.52 1007.30 1007.23 1007.32 1007.57 1007.95 1008.45 1009.04 1009.68 1010.36 1011.05 1011.72 1012.38 1013.00 1013.58 1014.12 1014.63 1015.12 1015.59 1016.07 1016.57 1017.09 1017.66 1018.26 1018.88 1019.52 1020.15 1020.75 1021.31 1021.83 1022.30 1022.73 1023.14 1023.55 1023.98 1024.42 1024.88
1010.59 1010.24 1009.76 1009.23 1008.68 1008.17 1007.75 1007.45 1007.30 1007.30 1007.46 1007.76 1008.19 1008.71 1009.31 1009.95 1010.62 1011.28 1011.92 1012.53 1013.09 1013.61 1014.10 1014.56 1015.01 1015.47 1015.96 1016.50 1017.08 1017.71 1018.38 1019.05 1019.72 1020.36 1020.95 1021.49 1021.99 1022.44 1022.86 1023.29 1023.72 1024.18 1024.66
1010.92 1010.54 1010.04 1009.48 1008.90 1008.36 1007.89 1007.53 1007.31 1007.23 1007.31 1007.52 1007.87 1008.33 1008.87 1009.47 1010.11 1010.76 1011.40 1012.00 1012.56 1013.08 1013.56 1014.01 1014.46 1014.93 1015.42 1015.97 1016.57 1017.22 1017.90 1018.60 1019.29 1019.94 1020.55 1021.10 1021.60 1022.05 1022.48 1022.91 1023.35 1023.81 1024.30
1011.07 1010.67 1010.16 1009.59 1009.00 1008.44 1007.94 1007.54 1007.26 1007.11 1007.11 1007.24 1007.50 1007.88 1008.37 1008.93 1009.54 1010.18 1010.82 1011.43 1012.01 1012.54 1013.04 1013.51 1013.97 1014.45 1014.96 1015.51 1016.12 1016.77 1017.46 1018.16 1018.84 1019.49 1020.09 1020.64 1021.12 1021.57 1022.00 1022.42 1022.85 1023.31 1023.80
1011.10 1010.69 1010.18 1009.62 1009.04 1008.47 1007.96 1007.52 1007.19 1006.97 1006.88 1006.93 1007.11 1007.41 1007.83 1008.35 1008.93 1009.56 1010.20 1010.83 1011.44 1012.00 1012.54 1013.04 1013.52 1014.02 1014.54 1015.11 1015.71 1016.36 1017.03 1017.71 1018.38 1019.00 1019.58 1020.11 1020.57 1021.01 1021.42 1021.83 1022.26 1022.71 1023.19
1011.10 1010.68 1010.18 1009.63 1009.06 1008.50 1007.98 1007.52 1007.14 1006.86 1006.70 1006.66 1006.75 1006.98 1007.33 1007.79 1008.34 1008.95 1009.59 1010.24 1010.87 1011.47 1012.04 1012.57 1013.09 1013.61 1014.14 1014.70 1015.30 1015.93 1016.58 1017.23 1017.87 1018.47 1019.02 1019.52 1019.98 1020.40 1020.80 1021.21 1021.63 1022.08 1022.55
1011.13 1010.70 1010.21 1009.68 1009.14 1008.59 1008.07 1007.59 1007.18 1006.84 1006.61 1006.49 1006.50 1006.65 1006.92 1007.32 1007.82 1008.40 1009.03 1009.68 1010.32 1010.94 1011.53 1012.09 1012.63 1013.16 1013.70 1014.26 1014.84 1015.45 1016.08 1016.71 1017.32 1017.91 1018.45 1018.94 1019.40 1019.82 1020.22 1020.63 1021.05 1021.50 1021.98
1011.25 1010.82 1010.35 1009.84 1009.32 1008.79 1008.28 1007.79 1007.35 1006.97 1006.68 1006.49 1006.42 1006.49 1006.69 1007.01 1007.46 1007.99 1008.58 1009.20 1009.83 1010.44 1011.03 1011.59 1012.13 1012.66 1013.20 1013.75 1014.33 1014.93 1015.54 1016.16 1016.77 1017.36 1017.90 1018.41 1018.88 1019.33 1019.76 1020.18 1020.62 1021.07 1021.55
1011.50 1011.07 1010.61 1010.12 1009.63 1009.12 1008.62 1008.14 1007.68 1007.28 1006.94 1006.70 1006.56 1006.56 1006.67 1006.92 1007.29 1007.74 1008.27 1008.84 1009.42 1010.00 1010.56 1011.09 1011.62 1012.14 1012.67 1013.21 1013.78 1014.38 1015.00 1015.63 1016.26 1016.87 1017.45 1017.99 1018.51 1018.99 1019.46 1019.91 1020.37 1020.83 1021.31
1011.88 1011.45 1011.01 1010.55 1010.07 1009.59 1009.11 1008.64 1008.18 1007.77 1007.41 1007.12 1006.94 1006.86 1006.91 1007.07 1007.34 1007.71 1008.15 1008.63 1009.14 1009.65 1010.15 1010.65 1011.14 1011.64 1012.15 1012.70 1013.27 1013.88 1014.52 1015.18 1015.84 1016.49 1017.13 1017.73 1018.30 1018.83 1019.34 1019.83 1020.31 1020.78 1021.24
1012.39 1011.97 1011.53 1011.09 1010.64 1010.19 1009.73 1009.27 1008.83 1008.42 1008.05 1007.75 1007.52 1007.39 1007.37 1007.45 1007.63 1007.90 1008.23 1008.61 1009.02 1009.45 1009.88 1010.32 1010.77 1011.24 1011.74 1012.28 1012.87 1013.49 1014.16 1014.86 1015.57 1016.28 1016.96 1017.62 1018.25 1018.83 1019.38 1019.90 1020.39 1020.86 1021.32
1013.03 1012.60 1012.17 1011.74 1011.30 1010.86 1010.42 1009.99 1009.57 1009.18 1008.81 1008.51 1008.26 1008.10 1008.01 1008.02 1008.12 1008.28 1008.51 1008.79 1009.10 1009.44 1009.79 1010.17 1010.58 1011.02 1011.50 1012.04 1012.64 1013.29 1013.99 1014.72 1015.47 1016.22 1016.96 1017.66 1018.33 1018.95 1019.52 1020.06 1020.55 1021.02 1021.46
1013.76 1013.32 1012.88 1012.44 1012.00 1011.58 1011.16 1010.75 1010.35 1009.98 1009.63 1009.33 1009.08 1008.90 1008.78 1008.73 1008.75 1008.83 1008.97 1009.15 1009.37 1009.63 1009.91 1010.24 1010.60 1011.02 1011.49 1012.03 1012.63 1013.29 1014.01 1014.76 1015.54 1016.31 1017.07 1017.79 1018.47 1019.11 1019.69 1020.22 1020.71 1021.15 1021.57
1014.53 1014.07 1013.61 1013.15 1012.71 1012.28 1011.87 1011.47 1011.10 1010.75 1010.43 1010.15 1009.91 1009.71 1009.58 1009.49 1009.46 1009.48 1009.56 1009.67 1009.82 1010.01 1010.25 1010.53 1010.86 1011.26 1011.72 1012.25 1012.84 1013.50 1014.22 1014.96 1015.73 1016.49 1017.24 1017.95 1018.62 1019.24 1019.80 1020.31 1020.78 1021.21 1021.60
Thickness
5597 5596 5595 5594 5594 5594 5593 5594 5594 5593 5593 5592 5592 5591 5592 5592 5593 5594 5594 5594 5593 5592 5591 5591 5591 5590 5590 5591 5591 5591 5590 5590 5591 5590 5589 5590 5592 5593 5594 5595 5595 5596 5596
5589 5590 5589 5587 5588 5588 5587 5587 5587 5587 5587 5587 5586 5586 5585 5585 5585 5585 5585 5585 5584 5583 5582 5582 5581 5581 5581 5580 5581 5582 5581 5580 5581 5581 5580 5579 5580 5582 5584 5584 5585 5586 5586
5583 5584 5583 5583 5582 5582 5582 5583 5582 5581 5581 5580 5579 5578 5576 5576 5575 5575 5576 5575 5575 5574 5573 5573 5572 5572 5572 5571 5572 5573 5573 5571 5570 5572 5573 5572 5572 5570 5573 5574 5575 5575 5575
5577 5578 5578 5578 5577 5577 5577 5577 5576 5575 5574 5573 5572 5571 5570 5568 5568 5568 5568 5567 5566 5565 5564 5564 5564 5563 5563 5563 5563 5563 5564 5564 5562 5561 5563 5565 5566 5563 5561 5563 5564 5564 5565
5570 5571 5572 5573 5572 5571 5570 5570 5569 5568 5567 5566 5566 5564 5562 5561 5560 5559 5559 5558 5557 5556 5556 5556 5555 5555 5555 5555 5554 5554 5554 5554 5554 5554 5552 5552 5553 5554 5553 5552 5552 5553 5554
5561 5563 5564 5564 5564 5563 5563 5563 5562 5561 5560 5559 5558 5557 5555 5553 5552 5551 5550 5548 5547 5547 5547 5547 5547 5546 5546 5546 5546 5546 5545 5545 5545 5545 5544 5544 5545 5544 5543 5542 5541 5542 5544
5550 5552 5554 5555 5555 5555 5556 5555 5555 5554 5552 5551 5550 5549 5548 5547 5545 5544 5542 5540 5539 5538 5538 5539 5538 5538 5537 5537 5536 5537 5536 5536 5536 5535 5536 5535 5536 5536 5535 5534 5532 5531 5532
5541 5544 5545 5546 5547 5548 5548 5548 5547 5546 5545 5544 5543 5542 5540 5539 5537 5536 5535 5533 5532 5532 5531 5530 5530 5530 5529 5528 5527 5527 5527 5527 5527 5527 5526 5525 5525 5526 5526 5524 5522 5520 5521
5532 5533 5535 5536 5537 5539 5539 5540 5540 5538 5537 5536 5535 5533 5532 5530 5529 5527 5527 5525 5524 5524 5523 5522 5522 5521 5520 5519 5518 5518 5518 5517 5518 5517 5516 5515 5515 5515 5516 5516 5515 5512 5512
5521 5523 5524 5525 5527 5529 5529 5529 5529 5530 5529 5527 5526 5525 5523 5522 5520 5519 5518 5517 5516 5516 5515 5514 5514 5513 5512 5510 5509 5508 5508 5508 5507 5507 5506 5505 5505 5506 5506 5505 5504 5503 5502
5510 5512 5514 5515 5517 5519 5518 5518 5519 5519 5518 5518 5517 5516 5514 5513 5512 5510 5509 5509 5508 5508 5507 5506 5505 5504 5503 5502 5501 5500 5499 5499 5498 5497 5497 5496 5496 5496 5496 5495 5494 5492 5491
5499 5501 5502 5504 5505 5507 5508 5508 5509 5509 5509 5508 5507 5506 5505 5504 5502 5501 5501 5500 5500 5500 5499 5498 5497 5496 5495 5494 5493 5492 5492 5491 5490 5488 5487 5486 5486 5486 5485 5484 5483 5482 5481
5487 5488 5490 5492 5494 5495 5497 5498 5499 5499 5499 5498 5497 5496 5495 5494 5494 5493 5493 5492 5492 5491 5490 5490 5489 5488 5487 5486 5485 5484 5483 5482 5481 5479 5477 5477 5476 5475 5475 5474 5473 5471 5471
5476 5478 5479 5481 5482 5484 5486 5487 5489 5489 5489 5488 5488 5487 5486 5486 5485 5485 5485 5484 5484 5482 5482 5482 5481 5480 5479 5478 5477 5475 5474 5472 5471 5469 5468 5467 5466 5465 5465 5464 5463 5461 5459
5464 5466 5468 5470 5472 5474 5475 5477 5479 5480 5480 5480 5479 5478 5478 5476 5476 5476 5476 5475 5474 5474 5473 5472 5471 5470 5470 5470 5469 5467 5466 5464 5462 5460 5458 5457 5457 5456 5455 5455 5453 5451 5449
5454 5456 5458 5460 5463 5465 5466 5468 5469 5470 5470 5471 5470 5470 5469 5469 5468 5467 5466 5466 5465 5464 5463 5462 5461 5461 5462 5462 5461 5460 5457 5455 5453 5451 5449 5448 5447 5447 5446 5445 5444 5442 5439
5445 5446 5448 5451 5453 5455 5457 5458 5459 5461 5461 5462 5461 5461 5461 5460 5459 5459 5458 5457 5456 5455 5453 5452 5452 5452 5452 5452 5452 5451 5448 5446 5445 5443 5441 5439 5438 5437 5435 5435 5434 5432 5429
5437 5439 5440 5442 5444 5446 5448 5450 5451 5451 5452 5453 5453 5452 5452 5451 5450 5450 5449 5448 5447 5446 5444 5443 5443 5442 5442 5443 5442 5441 5439 5437 5435 5433 5432 5430 5429 5427 5426 5425 5423 5421 5418
5427 5430 5432 5433 5435 5437 5439 5441 5441 5442 5443 5443 5443 5444 5444 5443 5442 5441 5440 5439 5438 5437 5435 5434 5434 5433 5432 5432 5432 5431 5429 5427 5425 5424 5422 5421 5419 5419 5417 5415 5413 5411 5408
5418 5420 5422 5424 5426 5428 5430 5431 5431 5432 5433 5434 5434 5434 5435 5435 5433 5432 5431 5430 5429 5428 5427 5425 5424 5423 5423 5423 5423 5421 5420 5417 5416 5415 5413 5412 5411 5410 5408 5405 5403 5401 5399
5407 5410 5412 5414 5416 5417 5419 5420 5421 5422 5423 5424 5424 5425 5425 5425 5423 5422 5421 5420 5419 5417 5416 5415 5414 5413 5413 5413 5413 5412 5410 5409 5407 5405 5404 5403 5402 5401 5399 5397 5395 5393 5391
5396 5399 5401 5402 5404 5406 5408 5410 5410 5411 5412 5413 5414 5414 5414 5414 5413 5411 5409 5408 5407 5406 5405 5404 5404 5404 5403 5403 5403 5403 5402 5401 5399 5397 5395 5395 5394 5392 5390 5388 5387 5385 5382
5385 5388 5389 5391 5393 5395 5398 5399 5399 5400 5402 5403 5403 5403 5403 5403 5402 5401 5399 5397 5396 5395 5395 5395 5395 5394 5394 5394 5394 5394 5393 5391 5390 5388 5387 5387 5385 5384 5381 5379 5377 5374 5371
5373 5376 5378 5379 5381 5383 5386 5387 5388 5390 5392 5392 5392 5392 5392 5392 5391 5391 5390 5388 5387 5386 5386 5386 5386 5385 5385 5384 5384 5384 5383 5382 5381 5379 5379 5377 5375 5373 5371 5369 5366 5363 5361
5361 5364 5366 5368 5369 5372 5374 5376 5378 5380 5381 5381 5381 5381 5381 5381 5381 5380 5379 5379 5379 5378 5378 5378 5378 5377 5376 5377 5377 5375 5374 5373 5372 5370 5368 5366 5364 5362 5360 5358 5355 5353 5351
5350 5352 5354 5356 5358 5361 5363 5365 5367 5369 5369 5370 5371 5371 5371 5370 5370 5370 5370 5371 5371 5371 5371 5371 5370 5370 5370 5369 5369 5368 5367 5366 5364 5361 5358 5356 5354 5352 5350 5348 5346 5344 5341